Flag for Romania Weather past 2 weeks in Brăila, Romania

Now
42 °F

Light rain. Overcast.


Feels Like: 38 °F
Forecast: 40 / 58 °F
Wind: 6 mph from Northwest

Location: Galati

Current Time: Apr 19, 2015 at 3:01:12 AM

Latest Report: Apr 19, 2015 at 2:00 AM


Visibility: 13 mi

Pressure: 29.98 "Hg

Humidity: 88%

Dew point: 38 °F

Location of BrăilaLocation

Historic Weather in Brăila — Graph

°F

Brăila temperature yesterday

Maximum temperature yesterday: 61 °F (at 1:00 AM)
Minimum temperature yesterday: 48 °F (at 8:00 PM)
Average temperature yesterday: 54 °F

Past Weeks' High & Low Weather Summary

 TemperatureHumidityPressure
High80 °F (Apr 17, 5:00 PM)96% (Apr 6, 1:00 PM)30.41 "Hg (Apr 6, 1:00 PM)
Low35 °F (Apr 5, 7:00 AM)16% (Apr 11, 5:00 PM)29.71 "Hg (Apr 17, 8:00 PM)
Average53 °F53%30.05 "Hg
* Reported Apr 4 1:00 AM — Apr 19 1:00 AM, Brăila, Weather by CustomWeather, © 2015

Note: Actual official high and low records may vary slightly from our data, if they occured in-between our weather recording intervals... More about our weather records

Advertising

Brăila weather history for previous 24 hours

 ConditionsComfort  
Time TempWeatherWind HumidityBarometerVisibility
1:00 AM
Sun, Apr 19
44 °FOvercast.6 mph82%29.96 "Hg12 mi
12:00 AM46 °FOvercast.5 mph75%29.94 "Hg12 mi
11:00 PM
Sat, Apr 18
48 °FOvercast.6 mph70%29.92 "Hg12 mi
10:00 PM49 °FOvercast.2 mph77%29.90 "Hg12 mi
9:00 PM48 °FOvercast.2 mph80%29.88 "Hg12 mi
8:00 PM48 °FOvercast.3 mph85%29.86 "Hg6 mi
7:00 PM48 °FLight rain. Overcast.5 mph88%29.85 "Hg2 mi
6:00 PM51 °FLight rain. Overcast.3 mph84%29.83 "Hg6 mi
5:00 PM52 °FOvercast.6 mph74%29.82 "Hg12 mi
4:00 PM54 °FOvercast.3 mph74%29.81 "Hg12 mi
3:00 PM53 °FOvercast.5 mph79%29.81 "Hg12 mi
2:00 PM56 °FOvercast.5 mph76%29.79 "Hg12 mi
1:00 PM54 °FOvercast.5 mph87%29.78 "Hg12 mi
12:00 PM54 °FOvercast.5 mph80%29.74 "Hg6 mi
11:00 AM60 °FOvercast.2 mph67%29.72 "Hg6 mi
10:00 AM59 °FOvercast.2 mph66%29.71 "Hg6 mi
9:00 AM58 °FOvercast.1 mph64%29.73 "Hg6 mi
8:00 AM54 °FOvercast.1 mph77%29.74 "Hg6 mi
7:00 AM53 °FOvercast.1 mph78%29.74 "Hg6 mi
5:00 AM56 °FOvercast.3 mph64%29.75 "Hg12 mi
4:00 AM56 °FPassing clouds.2 mph58%29.77 "Hg12 mi
3:00 AM58 °FPassing clouds.3 mph55%29.77 "Hg12 mi
Weather by CustomWeather, © 2015

See weather overviewHow to use our weather pages